Regional Weather Roundup
Issued by NWS

Home | Current Version | Previous Version | Graphics & Text | Print | Product List | Glossary On
Versions: 1 2 3 4 5 6 7 8 9 10 11 12 13 14 15 16 17 18 19 20 21 22 23 24 25 26 27 28 29 30 31 32 33 34 35 36 37 38 39 40 41 42 43 44 45 46 47 48 49 50
000
ASUS43 KLMK 230910
RWRKY
KENTUCKY REGIONAL WEATHER ROUNDUP
NATIONAL WEATHER SERVICE LOUISVILLE KY
500 AM EDT MON APR 23 2018

NOTE "FAIR" INDICATES FEW OR NO CLOUDS BELOW 12,000 FEET
WITH NO SIGNIFICANT WEATHER AND/OR OBSTRUCTIONS TO VISIBILITY.

KYZ001>023-026-027-061>063-070>075-231000-
WESTERN AND SOUTH CENTRAL KENTUCKY

CITY           SKY/WX    TMP DP  RH WIND       PRES   REMARKS
PADUCAH        LGT RAIN  55  52  89 NE22G35   29.76S FOG
HENDERSON      LGT RAIN  52  50  93 NE21      29.89F
OWENSBORO      LGT RAIN  53  50  89 E20G25    29.90F
HOPKINSVILLE   CLOUDY    57  57 100 E23G32    29.79R
BOWLING GREEN  CLOUDY    57  55  93 E15G28    29.91S
GLASGOW        CLOUDY    55  52  91 E13       29.94S
$$

KYZ024-025-028>034-038-045-046-053-231000-
NORTH CENTRAL KENTUCKY

CITY           SKY/WX    TMP DP  RH WIND       PRES   REMARKS
LOUISVILLE/SDF RAIN      53  46  77 E6        30.03S
LOUISVILLE/LOU LGT RAIN  53  47  79 E7        30.03F
FORT KNOX      LGT RAIN  51  51  98 E10       30.00F
$$

KYZ035>037-039>044-047>052-055>060-089>105-231000-
NORTHEAST KENTUCKY

CITY           SKY/WX    TMP DP  RH WIND       PRES   REMARKS
LEXINGTON      LGT RAIN  55  46  71 CALM      30.06R
COVINGTON      CLOUDY    55  32  41 E9        30.07S
FRANKFORT      LGT RAIN  53  43  68 E3        30.04S
$$

KYZ054-064>069-076>088-106>120-231000-
SOUTHEAST KENTUCKY

CITY           SKY/WX    TMP DP  RH WIND       PRES   REMARKS
JACKSON        LGT RAIN  60  44  55 SE9       30.07F
LONDON         LGT RAIN  54  50  86 E6        30.03F
SOMERSET       LGT RAIN  54  52  94 E7        30.02S
MIDDLESBORO    LGT RAIN  56  49  78 SE3       30.08R
MONTICELLO     LGT RAIN  55  52  89 E9        30.01S
$$




USA.gov is the U.S. government's official web portal to all federal, state and local government web resources and services.